Location: Drocourt
(49.0571°N, 1.7669°E)
Time: 00:59:06
(UTC+00:00)

SJ-6B - Pass Details

Date: 09 February 2023
Orbit: 502 x 570 km, 97.5° (Epoch: 21 March)

Event Time Altitude Azimuth Distance (km) Brightness Sun altitude
Exits shadow 18:37:39 30° 75° (ENE) 1,016 3.6 -15.9°
Maximum altitude 18:37:56 31° 67° (ENE) 1,009 3.6 -16.0°
Drops below altitude 10° 18:41:30 10° 6° (N) 1,873 5.4 -16.5°
Sets 18:43:50 0° 356° (N) 2,782 6.4 -16.9°
